Location: Allonne
(49.4086°N, 2.1143°E)
Time: 15:27:20
(UTC+00:00)

DMSP B5D2-2 - Pass Details

Date: 10 August 2024
Orbit: 787 x 802 km, 98.3° (Epoch: 09 September)

Event Time Altitude Azimuth Distance (km) Brightness Sun altitude
Rises 01:27:38 0° 104° (ESE) 3,282 7.4 -22.1°
Reaches altitude 10° 01:31:15 10° 78° (ENE) 2,356 7.0 -21.9°
Maximum altitude 01:33:31 13° 52° (NE) 2,153 7.2 -21.7°
Drops below altitude 10° 01:35:47 10° 26° (NNE) 2,360 7.7 -21.6°
Sets 01:39:24 0° 360° (N) 3,295 8.3 -21.3°
